STARLINK-5685, 55477

Orbit data source: Space-Track

STARLINK-5685, 55477 is a payload satellite owned by SpaceX/Seattle (US) in LEO that was launched on Thu, 02 Feb 2023 UTC via an FALCON 9 launch vehicle from the Air Force Eastern Test Range (AFETR). Payload-class satellites include a variety of spacecraft equipped with specific instruments for various scientific and technological missions. These include communications satellites like Starlink; space stations such as the ISS; scientific satellites like the Hubble; Earth observation satellites from companies like Planet Labs, Umbra, and HawkEye 360; GPS; miniature CubeSats for education and research; and military/defense satellites.

Loading next visibility...
Identifier
55477, 2023-015AE
Orbit
LEO
Country
Flag of USUS
Related business
Manufacturer
SpaceX/Seattle
Mission
Operational Commercial Communications
Bus & Motor
STARLINK, Unknown motor
Mass
305 kg wet, ~290 kg dry
Launch date (UTC)
2023-02-02 (3 years ago)
Launch vehicle
FALCON 9
Launch site
Air Force Eastern Test Range (AFETR)
Object type
Payload
Rocket body
Debris
Shape & HBR
Box + 1 Pan, 10.1 m
Radar Cross Section
13.562 m², Large (>1 m²)

Expand to show TLE details & history
Last TLE update: 15 hours ago

TLE from 15 hours ago
0 STARLINK-5685
1 55477U 23015AE  26035.28950402  .00000058  00000-0  19366-4 0  9997
2 55477  43.0025 134.9896 0001016 262.1546  97.9181 15.02532929165878
Epoch: 2026-02-04T06:56Z
TLE epoch observation values (Epoch: 2026-02-04T06:56:53.147Z)
Latitude
-0.00001°
Longitude
-103.69008°
Altitude
558.964 km
Speed
7.584 km/s
True Right ascension
08h 59m 57s
True Declination
0° 00' 00"
Sunlit
Object was in full shadow at epoch
Visualization orbit readout
Latitude
Unknown
Longitude
Unknown
Altitude
Unknown
Speed
Unknown
Apparent Right ascension
Unknown
Apparent Declination
Unknown
Sunlit
N/A
Visualization observer readout
Local Sidereal Time
00:05:18
Azimuth
Unknown
Elevation
Unknown
Doppler factor
Unknown
Orbital elements
Apogee altitude
561.718 km
Perigee altitude
560.307 km
Semi-major axis
6,939.15 km
Eccentricity
0.0001
Inclination
43.0025°
RAAN
134.9896°
Arg. of periapsis
262.1546°
True anomaly
97.92963°
Mean anomaly
97.9181°
Eccentric anomaly
97.92387°
Mean motion
3.75477 °/min
Orbital period
95.88 mins
BSTAR
0.000019366
Loading maneuver chart data...
Computing Atmospheric mass density...
Loading historical data...
Loading historical data...
Loading historical data...
Loading historical data...
Loading historical data...
Loading historical data...
Loading historical data...

Documentation

Showing up to 5 results
|